Adak, AK

9:14 AM HDT on September 30, 2016 (GMT -0900)
Adak

Weather History for PADK - February, 2013

Change the Weather History Date:

Friday, February 22, 2013

  Actual Average Record
Temperature  
Mean Temperature 35 °F -  
Max Temperature 37 °F 35 °F 45 °F (1962)
Min Temperature 33 °F 26 °F 6 °F (1971)
Degree Days  
Heating Degree Days 30    
Moisture  
Dew Point 31 °F    
Average Humidity 83    
Maximum Humidity 93    
Minimum Humidity 68    
Precipitation  
Precipitation 0.24 in - - ()
Sea Level Pressure  
Sea Level Pressure 28.63 in    
Wind  
Wind Speed 29 mph (SSW)    
Max Wind Speed 41 mph    
Max Gust Speed 56 mph    
Visibility 6 miles    
Events      
Averages and records for this station are not official NWS values.
T = Trace of Precipitation, MM = Missing Value Source: NWS Daily Summary

Daily Weather History Graph

Daily Weather History Graph

Search for Another Location

Airport or City:

Trip Planner

Search our weather history database for the weather conditions in past years. The results will help you decide how hot, cold, wet, or windy it might be!

Date:

Astronomy

Feb. 22, 2013 Rise Set
Actual Time 8:45 AM HST 7:14 PM HST
Civil Twilight 8:11 AM HST 7:49 PM HST
Nautical Twilight 7:32 AM HST 8:28 PM HST
Astronomical Twilight 6:53 AM HST 9:07 PM HST
Moon 4:27 PM HST (2/22) 6:54 AM HST (2/22)
Length of Visible Light 11h 37m
Length of Day
10h 28m
Waxing Gibbous, 91% of the Moon is Illuminated
Feb 22
Waxing Gibbous
Feb 25
Full
Mar 4
Last Quarter
Mar 11
New
Mar 19
First Quarter

Hourly Weather History & Observations

Time (HST) Temp. Windchill Dew Point Humidity Pressure Visibility Wind Dir Wind Speed Gust Speed Precip Events Conditions
12:16 AM 37.4 °F 26.9 °F 28.4 °F 70% 29.38 in 10.0 mi ESE 20.7 mph 26.5 mph N/A   Overcast
12:36 AM 37.4 °F 25.9 °F 30.2 °F 75% 29.35 in 10.0 mi SE 25.3 mph 31.1 mph N/A   Overcast
12:56 AM 37.4 °F 25.4 °F 30.2 °F 75% 29.30 in 10.0 mi SE 27.6 mph 43.7 mph N/A   Overcast
1:16 AM 37.4 °F 25.0 °F 32.0 °F 81% 29.24 in 10.0 mi ESE 29.9 mph 44.9 mph N/A   Overcast
1:36 AM 37.4 °F 24.0 °F 30.2 °F 75% 29.18 in 10.0 mi ESE 35.7 mph 49.5 mph N/A   Mostly Cloudy
1:56 AM 37.4 °F 23.3 °F 30.2 °F 75% 29.16 in 10.0 mi ESE 40.3 mph 48.3 mph N/A   Mostly Cloudy
2:16 AM 37.4 °F 23.3 °F 28.4 °F 70% 29.15 in 10.0 mi ESE 40.3 mph 56.4 mph N/A   Overcast
2:36 AM 35.6 °F 21.3 °F 30.2 °F 81% 29.11 in 4.0 mi ESE 36.8 mph 41.4 mph 0.01 in   Overcast
2:56 AM 35.6 °F 21.9 °F 30.2 °F 81% 29.07 in 3.0 mi ESE 33.4 mph 42.6 mph 0.03 in   Overcast
3:16 AM 35.6 °F 20.8 °F 30.2 °F 81% 29.03 in 3.0 mi ESE 40.3 mph 47.2 mph 0.04 in   Overcast
3:36 AM 35.6 °F 20.8 °F 32.0 °F 87% 28.98 in 2.5 mi ESE 40.3 mph 50.6 mph 0.06 in   Overcast
3:56 AM 35.6 °F 20.8 °F 32.0 °F 87% 28.93 in 2.5 mi ESE 40.3 mph 48.3 mph 0.09 in   Overcast
4:16 AM 35.6 °F 21.3 °F 32.0 °F 87% 28.89 in 2.0 mi East 36.8 mph 46.0 mph 0.02 in   Overcast
4:36 AM 35.6 °F 21.3 °F 32.0 °F 87% 28.85 in 2.5 mi ESE 36.8 mph 52.9 mph 0.04 in   Overcast
4:56 AM 35.6 °F 21.9 °F 32.0 °F 87% 28.81 in 3.0 mi ESE 33.4 mph 46.0 mph 0.06 in   Overcast
5:36 AM 35.6 °F 22.1 °F 30.2 °F 81% 28.72 in 5.0 mi SE 32.2 mph 56.4 mph 0.03 in   Overcast
5:56 AM 37.4 °F 25.4 °F 30.2 °F 75% 28.68 in 10.0 mi SE 27.6 mph 40.3 mph 0.03 in   Mostly Cloudy
6:36 AM 35.6 °F 22.7 °F 26.6 °F 70% 28.62 in 10.0 mi SE 28.8 mph 42.6 mph 0.01 in   Scattered Clouds
6:56 AM 35.6 °F 22.7 °F 26.6 °F 70% 28.59 in 10.0 mi SE 28.8 mph 43.7 mph 0.02 in   Mostly Cloudy
7:16 AM 35.6 °F 22.3 °F 26.6 °F 70% 28.55 in 10.0 mi SE 31.1 mph 42.6 mph N/A   Overcast
7:36 AM 35.6 °F 23.0 °F 30.2 °F 81% 28.51 in 10.0 mi SE 27.6 mph 39.1 mph N/A   Overcast
7:56 AM 35.6 °F 24.8 °F 30.2 °F 81% 28.47 in 7.0 mi ESE 19.6 mph 29.9 mph N/A   Overcast
8:16 AM 35.6 °F 23.7 °F 30.2 °F 81% 28.45 in 7.0 mi SE 24.2 mph 34.5 mph N/A   Overcast
8:36 AM 35.6 °F 22.3 °F 30.2 °F 81% 28.40 in 9.0 mi SE 31.1 mph 41.4 mph N/A   Overcast
8:56 AM 35.6 °F 23.0 °F 30.2 °F 81% 28.36 in 5.0 mi SE 27.6 mph 33.4 mph N/A   Overcast
9:16 AM 35.6 °F 25.2 °F 32.0 °F 87% 28.32 in 3.0 mi SSE 18.4 mph 31.1 mph N/A   Overcast
9:36 AM 35.6 °F 24.5 °F 33.8 °F 93% 28.31 in 10.0 mi South 20.7 mph 27.6 mph N/A   Overcast
9:56 AM 35.6 °F 24.8 °F 32.0 °F 87% 28.32 in 10.0 mi SSW 19.6 mph 24.2 mph N/A   Overcast
10:16 AM 35.6 °F 22.5 °F 32.0 °F 87% 28.32 in 9.0 mi SW 29.9 mph 38.0 mph N/A   Overcast
10:36 AM 35.6 °F 22.7 °F 32.0 °F 87% 28.34 in 2.5 mi SW 28.8 mph 40.3 mph N/A   Overcast
10:56 AM 33.8 °F 20.5 °F 30.2 °F 87% 28.35 in 2.5 mi WSW 27.6 mph 39.1 mph N/A   Overcast
11:16 AM 35.6 °F 22.7 °F 32.0 °F 87% 28.37 in 7.0 mi WSW 28.8 mph 38.0 mph N/A   Overcast
11:36 AM 35.6 °F 22.5 °F 32.0 °F 87% 28.39 in 10.0 mi WSW 29.9 mph 41.4 mph N/A   Overcast
11:56 AM 35.6 °F 21.1 °F 32.0 °F 87% 28.41 in 7.0 mi WSW 38.0 mph 52.9 mph N/A   Overcast
12:16 PM 33.8 °F 18.1 °F 30.2 °F 87% 28.42 in 3.0 mi SW 41.4 mph 54.1 mph N/A   Overcast
12:56 PM 33.8 °F 19.6 °F 30.2 °F 87% 28.46 in 3.0 mi WSW 32.2 mph 48.3 mph N/A   Overcast
1:16 PM 35.6 °F 21.5 °F 30.2 °F 81% 28.47 in 3.0 mi WSW 35.7 mph 42.6 mph N/A   Overcast
1:36 PM 35.6 °F 21.9 °F 30.2 °F 81% 28.47 in 3.0 mi SW 33.4 mph 46.0 mph N/A   Overcast
1:56 PM 37.4 °F 23.8 °F 33.8 °F 87% 28.47 in 10.0 mi SW 36.8 mph 47.2 mph N/A   Overcast
2:16 PM 35.6 °F 22.1 °F 30.2 °F 81% 28.48 in 10.0 mi SW 32.2 mph 42.6 mph N/A   Mostly Cloudy
2:36 PM 33.8 °F 19.9 °F 30.2 °F 87% 28.48 in 0.8 mi SW 31.1 mph 40.3 mph N/A   Overcast
2:56 PM 33.8 °F 21.0 °F 30.2 °F 87% 28.48 in 1.8 mi WSW 25.3 mph 40.3 mph N/A   Overcast
3:16 PM 33.8 °F 21.0 °F 30.2 °F 87% 28.47 in 2.5 mi WSW 25.3 mph - 0.01 in   Overcast
3:36 PM 33.8 °F 22.5 °F 30.2 °F 87% 28.47 in 1.8 mi WSW 19.6 mph - 0.01 in   Overcast
3:56 PM 33.8 °F 21.6 °F 30.2 °F 87% 28.47 in 10.0 mi WSW 23.0 mph 27.6 mph 0.01 in   Mostly Cloudy
4:16 PM 35.6 °F 23.7 °F 33.8 °F 93% 28.47 in 10.0 mi WSW 24.2 mph - N/A   Mostly Cloudy
4:36 PM 35.6 °F 23.7 °F 33.8 °F 93% 28.47 in 10.0 mi WSW 24.2 mph - N/A   Overcast
4:56 PM 35.6 °F 24.0 °F 32.0 °F 87% 28.48 in 10.0 mi WSW 23.0 mph - N/A   Mostly Cloudy
5:16 PM 35.6 °F 24.0 °F 30.2 °F 81% 28.48 in 10.0 mi WSW 23.0 mph 31.1 mph N/A   Mostly Cloudy
5:36 PM 35.6 °F 23.0 °F 30.2 °F 81% 28.49 in 3.0 mi West 27.6 mph 34.5 mph N/A   Overcast
5:56 PM 35.6 °F 23.7 °F 30.2 °F 81% 28.48 in 10.0 mi West 24.2 mph 28.8 mph N/A   Overcast
6:16 PM 35.6 °F 23.7 °F 30.2 °F 81% 28.49 in 10.0 mi West 24.2 mph 29.9 mph N/A   Overcast
6:36 PM 33.8 °F 22.5 °F 30.2 °F 87% 28.50 in 2.5 mi West 19.6 mph - N/A   Overcast
6:56 PM 33.8 °F 21.0 °F 30.2 °F 87% 28.50 in 1.0 mi West 25.3 mph 32.2 mph 0.01 in   Overcast
7:16 PM 33.8 °F 21.6 °F 30.2 °F 87% 28.51 in 1.5 mi WSW 23.0 mph - 0.01 in   Overcast
7:36 PM 33.8 °F 21.3 °F 30.2 °F 87% 28.51 in 2.0 mi WSW 24.2 mph 29.9 mph 0.01 in   Overcast
7:56 PM 33.8 °F 20.5 °F 32.0 °F 93% 28.52 in 5.0 mi WSW 27.6 mph - 0.02 in   Overcast
8:16 PM 33.8 °F 23.2 °F 30.2 °F 87% 28.53 in 10.0 mi West 17.3 mph 27.6 mph N/A   Mostly Cloudy
8:36 PM 33.8 °F 22.2 °F 30.2 °F 87% 28.54 in 10.0 mi West 20.7 mph 28.8 mph N/A   Mostly Cloudy
8:56 PM 33.8 °F 22.2 °F 30.2 °F 87% 28.55 in 3.0 mi West 20.7 mph - N/A   Overcast
9:16 PM 35.6 °F 26.6 °F 30.2 °F 81% 28.57 in 5.0 mi WNW 13.8 mph 20.7 mph N/A   Overcast
9:36 PM 35.6 °F 24.2 °F 30.2 °F 81% 28.58 in 10.0 mi NW 21.9 mph 31.1 mph N/A   Mostly Cloudy
9:56 PM 35.6 °F 23.0 °F 30.2 °F 81% 28.59 in 9.0 mi NW 27.6 mph 35.7 mph N/A   Mostly Cloudy
10:16 PM 35.6 °F 22.3 °F 30.2 °F 81% 28.61 in 5.0 mi WNW 31.1 mph 39.1 mph N/A   Overcast
10:36 PM 35.6 °F 23.0 °F 28.4 °F 75% 28.63 in 8.0 mi WNW 27.6 mph 34.5 mph N/A   Overcast
10:56 PM 35.6 °F 23.7 °F 28.4 °F 75% 28.65 in 10.0 mi WNW 24.2 mph 38.0 mph N/A   Overcast
11:16 PM 35.6 °F 24.0 °F 30.2 °F 81% 28.66 in 4.0 mi NW 23.0 mph 35.7 mph N/A   Overcast
11:36 PM 35.6 °F 23.4 °F 30.2 °F 81% 28.69 in 3.0 mi NW 25.3 mph 41.4 mph 0.01 in   Mostly Cloudy
11:56 PM 35.6 °F 21.5 °F 30.2 °F 81% 28.70 in 5.0 mi NW 35.7 mph 44.9 mph 0.02 in   Overcast